Regional Weather Roundup
Issued by NWS Mt. Holly, NJ

Home | Current Version | Previous Version | Text Only | Print | Product List | Glossary On
Versions: 1 2 3 4 5 6 7 8 9 10 11 12 13 14 15 16 17 18 19 20 21 22 23 24 25 26 27
000
ASUS41 KPHI 300312
RWRPHI

REGIONAL WEATHER ROUNDUP
NATIONAL WEATHER SERVICE MOUNT HOLLY NJ
1100 PM EDT SUN MAY 29 2016

NOTE:  "FAIR" INDICATES FEW OR NO CLOUDS BELOW 12,000 FEET WITH NO
SIGNIFICANT WEATHER AND/OR OBSTRUCTIONS TO VISIBILITY.

 * = STATION DOES NOT REPORT PRECIPITATION (E.G. RAIN, SNOW, ETC.)
        OR FOG.

NJZ015>026-300400-
SOUTHERN NEW JERSEY

CITY           SKY/WX    TMP DP  RH WIND       PRES   REMARKS
POMONA         CLOUDY    71  68  90 S7        30.08S
WILDWOOD*      CLOUDY   N/A N/A N/A S9        30.09S
MILLVILLE      LGT RAIN  72  69  90 S5        30.08S
WRIGHTSTOWN    LGT RAIN  73  70  91 S3        30.05F
MOUNT HOLLY    HVY RAIN  73  72  96 W7        30.06F FOG
TRENTON        LGT RAIN  72  68  87 SW5       30.06S FOG

$$
NJZ001>014-300400-
NORTHERN NEW JERSEY

CITY           SKY/WX    TMP DP  RH WIND       PRES   REMARKS
SUSSEX         CLOUDY    75  63  66 CALM      30.05S
ANDOVER*         N/A     75  65  70 CALM      30.06F
MORRISTOWN     LGT RAIN  75  66  73 SW3       30.05S
NEWARK         LGT RAIN  78  68  71 S8        30.05S
TETERBORO      CLOUDY    76  64  66 S5        30.04S
CALDWELL       LGT RAIN  77  68  73 VRB3      30.05S
SOMERVILLE     LGT RAIN  75  69  81 SW3       30.04F
ALLAIRE*       LGT RAIN  72  70  93 CALM      30.08F
TOMS RIVER*    CLOUDY    72  66  83 S6        30.08F

$$
PAZ043-044-047-054-055-060>062-066>071-300400-
EASTERN PENNSYLVANIA

CITY           SKY/WX    TMP DP  RH WIND       PRES   REMARKS
PHILADELPHIA   LGT RAIN  72  69  90 S6        30.08S FOG
NORTH PHILA    RAIN      70  66  87 N7        30.08S FOG
BLUE BELL*     CLOUDY    70  68  94 CALM      30.07F
DOYLESTOWN     LGT RAIN  70  70 100 S3        30.07F
QUAKERTOWN*    CLOUDY    72  72 100 CALM      30.08F
PERKASIE*      LGT RAIN  70  70 100 S3        30.09F
POTTSTOWN      LGT RAIN  70  70 100 VRB3      30.08F
LANCASTER      CLOUDY    71  70  96 S5        30.06S
COATESVILLE    LGT RAIN  70  70 100 CALM      30.09F
READING        LGT RAIN  72  69  90 S5        30.05S
ALLENTOWN      LGT RAIN  73  69  87 SW5       30.06S
MOUNT POCONO   LGT RAIN  68 N/A N/A SW7       30.10F
HAZLETON       LGT RAIN  68  66  94 CALM      30.12F
LEHIGHTON      RAIN      70  68  94 CALM      30.07S
WILKES BARRE   LGT RAIN  75  60  59 SW9       30.05S

$$
DEZALL-MDZ008-012-015-019-020-300400-
DELAWARE AND EASTERN MARYLAND

CITY           SKY/WX    TMP DP  RH WIND       PRES   REMARKS
WILMINGTON     RAIN      71  69  93 SE6       30.08F
DOVER          LGT RAIN  72  72 100 E6        30.05F
GEORGETOWN     CLOUDY    73  70  90 S8        30.07F
EASTON         CLOUDY    75  75 100 SE6       30.08F
PATUXENT       CLOUDY    72  70  93 SE5       30.04S
OCEAN CITY     CLOUDY   N/A N/A N/A VRB3      30.08F
WALLOPS ISLAND MOCLDY    71  70  96 S8        30.07F
CAMBRIDGE      CLOUDY    72  70  94 SE7       30.05F
SALISBURY      CLOUDY    73  70  90 SE7       30.07S

$$
PAZ001-021-NYZ056-072-MDZ011-DCZ001-300400-
OTHER NEARBY LOCATIONS

CITY           SKY/WX    TMP DP  RH WIND       PRES   REMARKS
HARRISBURG     LGT RAIN  72  68  87 CALM      30.05R
STATE COLLEGE  CLOUDY    67  60  76 CALM      30.07S
WILLIAMSPORT   CLOUDY    74  61  63 E3        30.03R
BINGHAMTON     LGT RAIN  70  61  73 NW7       30.06S
NEW YORK CITY  MOCLDY    71  63  75 VRB3      30.09S
BALTIMORE      LGT RAIN  67  64  90 W5        30.05F
WASHINGTON DC  LGT RAIN  68  65  90 NE7       30.06F

$$




USA.gov is the U.S. government's official web portal to all federal, state and local government web resources and services.